OE7AOT Weather Reports


Display with metric or nautical units.
time (UTC)temp
F
wind
direction
speed
MPH
gust
MPH
rain 1hr
in
rain 24hr
in
rain mn
in
humidity
%
barometer
mb
20260508051717 45 139 9.0 0.0 0.00 1.11 0.00 84 912.9
20260508044717 44 139 3.0 0.0 0.00 1.11 0.00 85 913.0
20260508041717 44 86 6.0 0.0 0.00 1.11 0.00 85 912.8
20260508034717 44 0 0.0 0.0 0.00 1.11 0.00 84 912.6
20260508031717 45 128 6.0 0.0 0.00 1.11 0.00 83 912.5
20260508024717 45 182 5.0 0.0 0.00 1.11 0.00 84 912.5
20260508021717 46 148 3.0 0.0 0.00 1.11 0.00 83 912.6
20260508014717 46 132 9.0 0.0 0.00 1.11 0.00 84 912.8
20260508011717 46 165 9.0 0.0 0.00 1.11 0.00 83 912.7
20260508004717 47 0 0.0 0.0 0.00 1.11 0.00 83 912.9
20260508001717 47 297 2.0 0.0 0.00 1.11 0.00 83 913.2
20260507234717 46 0 0.0 0.0 0.00 1.11 0.00 85 913.4
20260507231717 46 0 0.0 0.0 0.00 1.11 0.00 83 913.4
20260507224717 47 0 0.0 0.0 0.00 1.11 0.00 82 913.3
20260507221717 47 0 0.0 0.0 0.00 1.11 0.00 81 913.5
20260507214717 48 0 0.0 0.0 0.00 1.11 0.00 80 913.6
20260507211717 48 136 4.0 0.0 0.00 1.11 0.00 80 913.5
20260507204717 48 0 0.0 0.0 0.00 1.11 0.00 80 913.6
20260507201717 48 0 0.0 0.0 0.00 1.11 0.00 78 913.2
20260507194717 49 0 0.0 0.0 0.00 1.11 0.00 78 913.0
20260507191717 50 0 0.0 0.0 0.00 1.11 0.00 76 913.0
20260507184717 51 290 2.0 0.0 0.00 1.11 0.00 72 912.7
20260507181717 53 131 4.0 0.0 0.00 1.11 0.00 68 912.4
20260507174717 55 129 10.0 0.0 0.00 1.11 0.00 64 911.8
20260507171717 58 122 9.0 0.0 0.00 1.11 0.00 60 911.6
20260507164717 61 0 0.0 0.0 0.00 1.11 0.00 53 911.4
20260507161717 61 268 3.0 0.0 0.00 1.11 0.00 54 911.4
20260507154717 61 213 3.0 0.0 0.00 1.11 0.00 56 911.5
20260507151717 54 286 3.0 0.0 0.00 1.11 0.00 65 911.5
20260507144717 53 0 0.0 0.0 0.00 1.11 0.00 70 911.7
20260507141717 53 297 9.0 0.0 0.00 1.11 0.00 67 911.6
20260507134717 57 262 13.0 0.0 0.00 1.11 0.00 62 911.1
20260507131717 58 297 7.0 0.0 0.00 1.11 0.00 60 911.0
20260507124717 58 309 6.0 0.0 0.00 1.11 0.00 57 910.9
20260507121717 59 300 4.0 0.0 0.00 1.11 0.00 55 910.8
20260507114717 56 194 2.0 0.0 0.00 1.11 0.00 64 910.8
20260507111717 53 269 3.0 0.0 0.00 1.11 0.00 66 911.0
20260507104717 54 245 6.0 0.0 0.00 1.11 0.00 64 911.1
20260507101717 55 275 10.0 0.0 0.00 1.11 0.00 60 911.0
20260507094717 56 264 14.0 0.0 0.00 1.11 0.00 58 910.7
20260507091717 59 286 14.0 0.0 0.00 1.11 0.00 53 910.2
20260507084717 56 276 10.0 0.0 0.00 1.11 0.00 57 910.2
20260507081717 55 295 7.0 0.0 0.00 1.11 0.00 61 910.1
20260507074717 53 312 4.0 0.0 0.00 1.11 0.00 65 910.0
20260507064717 51 0 0.0 0.0 0.00 1.11 0.00 73 909.8
20260507061717 50 303 3.0 0.0 0.00 1.11 0.00 73 909.8
20260507054717 49 0 0.0 0.0 0.00 1.11 0.00 75 909.6